Regional Weather Roundup
Issued by NWS

Home | Current Version | Previous Version | Text Only | Print | Product List | Glossary On
Versions: 1 2 3 4 5 6 7 8 9 10 11 12 13 14 15 16 17 18 19 20 21 22 23 24 25 26 27 28 29 30 31 32 33 34 35 36 37 38 39 40 41 42 43 44 45 46 47 48 49 50
000
ASUS43 KLSX 291110
RWRMO

WEATHER SUMMARY FOR MISSOURI
NATIONAL WEATHER SERVICE SPRINGFIELD MO
600 AM CDT MON MAY 29 2017

NOTE: "FAIR" INDICATES FEW OR NO CLOUDS BELOW 12,000 FEET WITH NO
       SIGNIFICANT WEATHER AND/OR OBSTRUCTIONS TO VISIBILITY.
       CURRENT SKY AND/OR WEATHER CONDITIONS ARE NOT AVAILABLE FOR
       CHILLICOTHE AND FARMINGTON.

MOZ001>031-035>038-043-044-053-054-291200-
...NORTHERN AND WESTERN MISSOURI...

CITY           SKY/WX    TMP DP  RH WIND       PRES   REMARKS
KANSAS CTY INT CLOUDY    59  53  80 SW7       29.93F
KANSAS C DTWN  PTCLDY    59  54  83 VRB3      29.92F
LEE`S SUMMIT   PTCLDY    59  51  75 SW6       29.94F
ST JOSEPH      CLOUDY    60  53  77 CALM      29.93S
CHILLICOTHE      N/A     52  49  89 CALM      29.92S
KIRKSVILLE     CLEAR     55  47  74 VRB3      29.90S

$$
MOZ066>068-077>081-088>096-101>105-291200-
...SOUTHWEST MISSOURI...

CITY           SKY/WX    TMP DP  RH WIND       PRES   REMARKS
SPRINGFIELD    CLEAR     60  55  83 SW5       29.98S
JOPLIN         PTCLDY    61  56  83 SW7       29.98F
BRANSON        CLEAR     59  54  82 CALM      30.00S

$$
MOZ032>034-039>042-045>050-055>058-069>072-291200-
...CENTRAL MISSOURI...

CITY           SKY/WX    TMP DP  RH WIND       PRES   REMARKS
COLUMBIA       PTCLDY    61  50  67 W3        29.93F
JEFFERSON CITY PTCLDY    57  53  86 E3        29.94S
ROLLA          CLEAR     55  53  93 SW6       29.95S
SEDALIA        CLEAR     57  55  93 S7        29.94F
WHITEMAN AFB   CLEAR     53  53 100 SW8       29.92F
WARRENSBURG    CLEAR     52  50  93 S3        29.94S
OSAGE BEACH    CLEAR     53  52  96 CALM      29.97S

$$
MOZ051-052-059>065-291200-
...EAST CENTRAL MISSOURI...

CITY           SKY/WX    TMP DP  RH WIND       PRES   REMARKS
ST LOUIS INTL  MOCLDY    64  55  72 W7        29.92S
SPIRIT OF STL  CLEAR     60  56  86 W3        29.91S
ST CHARLES     PTCLDY    57  56  96 W3        29.90S

$$
MOZ072>076-082>087-097>100-106>115-291200-
...SOUTH CENTRAL AND SOUTHEAST MISSOURI...

CITY           SKY/WX    TMP DP  RH WIND       PRES   REMARKS
CAPE GIRARDEAU CLOUDY    59  56  89 CALM      29.95S
FARMINGTON     CLEAR     54  53  97 CALM      29.96F
POPLAR BLUFF   CLOUDY    61  58  90 CALM      29.94F
WEST PLAINS    CLOUDY    58  54  86 SW5       29.98F

$$



USA.gov is the U.S. government's official web portal to all federal, state and local government web resources and services.